SCP
0 0 0 0 0 0 0 0 0 0 0 0 0 0 0 0 0 0 0 0 0 0 0 0 0 0 0 0 0 0 0 0 0 0 0 0 0 0 0 0 0 0 0 0
0 0 0 0 0 0 0 0 0 0 0 0 0 0 0 0 0 0 0 0 0 0 0 0 0 0 0 0 0 0 0 0 0 0 0 0 0 0 0 0 0 0 0 0
0 0 0 0 0 0 0 0 0 0 0 0 0 -0 -0 0 -0 0 0 0 0 0 0 0 0 0 0 0 0 0 0 0 0 0 0 0 0 0 0 0 0 0 0 0
0 0 0 0 0 0 0 0 0 0 0 0 0 -0 -0 0 0 0 0 0 0 0 0 0 0 0 0 0 0 0 0 0 0 0 0 0 0 0 0 0 0 0 0 0
0 0 0 0 0 0 0 0 0 0 0 0 0 0 -0 -0 -0 0 0 0 0 0 0 0 0 0 0 0 0 0 0 0 0 0 0 0 0 0 0 0 0 0 0 0
0 0 0 0 0 0 0 0 0 0 0 0 0 0 -0 -0 -0 0 0 0 0 0 0 0 0 0 0 0 0 0 0 0 0 0 0 0 0 0 0 0 0 0 0 0
0 0 0 0 0 0 0 0 0 0 0 0 0 0 0 -0 -0 0 0 0 0 0 0 0 0 0 0 0 0 0 0 0 0 0 0 0 0 0 0 0 0 0 0 0
0 0 0 0 0 0 0 0 0 0 0 0 0 0 -0 -0 0 -0 0 -0 0 0 0 0 0 0 0 0 0 0 0 0 0 0 0 0 0 0 0 0 0 0 0 0
0 0 0 0 0 0 0 0 0 0 0 0 0 0 -0 -0 0 0 0 0 0 0 0 0 0 0 0 0 0 0 0 0 0 0 0 0 0 0 0 0 0 0 0 0
0 0 0 0 0 0 0 0 0 0 0 0 0 0 -0 0 0 0 0 0 0 0 0 0 0 0 0 0 0 0 0 0 0 0 0 0 0 0 0 0 0 0 0 0
0 0 0 0 0 0 0 0 0 0 0 0 0 0 0 0 0 0 0 0 0 0 0 0 0 0 0 0 0 0 0 0 0 0 0 0 0 0 0 0 0 0 0 0
0 0 0 0 0 0 0 0 0 0 0 0 0 0 0 0 -0 0 0 0 0 0 0 0 0 0 0 0 0 0 0 0 0 0 0 0 0 0 0 0 0 0 0 0
0 0 0 0 0 0 0 0 0 0 0 0 0 0 0 0 0 0 0 0 0 0 0 0 0 0 0 0 0 0 0 0 0 0 0 0 0 0 0 0 0 0 0 0
0 0 0 0 0 0 0 0 0 0 0 0 0 0 0 0 -0 0 -0 -0 0 0 0 0 0 0 0 0 0 0 0 0 0 0 0 0 0 0 0 0 0 0 0 0
0 0 0 0 0 0 0 0 0 0 0 0 -0 0 0 0 0 0 -0 0 0 0 0 0 0 0 0 0 0 0 0 0 0 0 0 0 0 0 0 0 0 0 0 0
0 0 0 0 0 0 0 0 0 0 0 0 -0 -0 -0 0 -0 -0 -0 -0 -0 0 0 0 0 0 0 0 0 0 0 0 0 0 0 0 0 0 0 0 0 0 0 0
0 0 0 0 0 0 0 0 0 0 0 0 -0 -0 -0 -0 -0 -0 -0 -0 -0 0 -0 0 0 0 0 0 0 0 0 0 0 0 0 0 0 0 0 0 0 0 0 0
0 0 0 0 0 0 0 0 0 0 0 0 0 0 0 -0 -0 -0 0 -0 -0 0 0 0 0 0 0 0 0 0 0 0 0 0 0 0 0 0 0 0 0 0 0 0
0 0 0 0 0 0 0 0 0 0 0 0 0 0 0 0 0 -0 -0 -0 -0 0 0 0 0 0 0 0 0 0 0 0 0 0 0 0 0 0 0 0 0 0 0 0
0 0 0 0 0 0 0 0 0 -0 0 0 0 0 -0 0 -0 -0 0 -0 -0 0 0 0 0 0 0 0 0 0 0 0 0 0 0 0 0 0 0 0 0 0 0 0
0 0 0 0 0 0 0 0 0 -0 -0 0 0 -0 -0 -0 -0 0 0 -0 -0 0 0 0 0 0 0 0 0 0 0 0 0 0 0 0 0 0 0 0 0 0 0 0
0 0 0 0 0 0 0 0 0 0 0 -0 0 -0 -0 -0 -0 0 0 -0 0 0 0 0 -0 0 0 0 0 0 0 0 0 0 0 0 0 0 0 0 0 0 0 0
0 0 0 0 0 0 0 0 0 0 -0 -0 -0 -0 -0 -0 -0 -0 -0 -0 0 0 0 0 0 0 0 0 0 0 0 0 0 0 0 0 0 0 0 0 0 0 0 0
0 0 0 0 0 0 0 0 0 0 0 0 -0 -0 -0 0 0 -0 -0 0 0 0 0 0 0 0 0 0 0 0 0 0 0 0 0 0 0 0 0 0 0 0 0 0
0 0 0 0 0 0 0 0 0 0 0 -0 -0 -0 -0 -0 0 0 -0 0 0 0 0 0 0 0 0 0 0 0 0 0 0 0 0 0 0 0 0 0 0 0 0 0
0 0 0 0 0 0 0 0 0 0 0 0 -0 -0 -0 -0 -0 -0 -0 0 0 0 0 0 0 0 0 0 0 0 0 0 0 0 0 0 0 0 0 0 0 0 0 0
Wind_Speed_500mb
6 13 22 27 28 24 8 13 26 28 14 11 26 29 46 40 33 42 48 56 60 55 61 71 69 79 73 74 80 81 77 74 70 62 55 48 44 42 38 34 30 29 27 27
8 22 23 8 15 20 24 29 33 36 24 22 30 33 44 44 44 55 62 64 65 67 66 75 64 77 86 84 86 87 85 81 74 67 58 51 45 43 39 36 33 29 28 26
20 3 10 11 12 18 24 29 28 26 26 25 25 28 29 19 24 41 60 72 64 69 71 69 80 71 84 95 93 95 92 86 79 72 64 54 48 44 43 40 35 30 27 23
16 8 11 16 22 22 25 18 28 23 12 10 3 14 21 27 24 26 45 42 58 67 68 65 76 89 81 94 98 98 96 91 85 78 70 59 50 49 43 39 35 29 24 21
1 3 7 14 12 20 9 2 8 10 15 14 20 12 8 9 20 35 19 10 26 38 49 61 66 78 91 84 99 102 99 96 91 83 74 61 54 48 42 40 34 27 23 20
28 7 10 11 2 17 4 3 3 2 5 12 18 17 11 13 12 14 12 41 37 32 27 35 48 61 66 84 89 102 104 102 95 88 78 67 58 52 48 42 34 26 23 20
8 9 4 7 10 6 10 6 6 7 7 13 2 9 16 31 28 24 32 46 38 31 33 29 34 52 63 81 89 102 105 102 98 93 82 71 60 52 47 41 34 27 23 21
6 5 5 4 9 2 13 8 7 10 7 8 2 11 5 15 17 13 20 27 39 57 51 35 27 36 59 71 85 98 102 102 100 96 83 71 62 56 51 44 34 28 25 20
6 9 1 2 2 4 8 13 5 8 2 8 11 8 19 24 16 19 25 40 40 67 71 55 27 25 42 61 81 94 99 100 99 94 86 75 66 60 54 45 36 31 26 21
5 12 1 3 4 4 7 3 5 5 9 13 7 8 13 3 12 5 20 32 43 63 72 65 38 21 28 46 67 86 95 99 98 94 85 75 66 61 55 45 36 31 28 23
14 8 4 7 7 2 5 6 7 6 8 10 10 9 4 5 15 22 19 31 49 56 62 69 50 30 24 34 54 79 92 96 98 94 86 76 69 63 55 44 37 34 30 25
10 9 12 19 14 8 7 9 9 15 14 10 11 22 22 23 17 29 37 52 57 53 54 68 56 40 27 31 44 64 88 97 96 92 83 76 70 64 56 46 40 37 33 28
10 2 12 11 7 10 10 12 12 23 9 31 23 13 3 33 40 43 42 62 73 72 61 66 63 51 35 31 39 54 77 92 95 92 83 77 71 66 56 47 41 39 35 31
6 6 14 24 22 26 28 30 30 15 11 20 35 36 33 45 57 62 74 68 65 73 63 66 73 62 45 36 37 49 68 85 91 89 83 77 72 65 55 47 44 41 38 33
2 8 8 22 30 31 36 42 41 31 31 25 49 39 36 43 45 62 80 73 68 75 92 77 84 77 54 41 39 46 61 79 88 87 81 74 68 61 55 51 48 45 41 37
8 11 11 15 29 33 39 35 32 42 36 44 47 56 35 42 51 56 59 57 58 75 76 96 90 72 57 48 43 49 65 81 87 84 79 73 69 64 59 55 51 49 45 41
10 7 4 30 18 19 22 29 37 25 30 30 36 29 25 28 32 48 64 70 69 75 71 71 65 61 57 47 46 54 69 82 89 87 82 75 73 69 62 57 55 53 49 45
17 19 13 19 3 25 22 21 26 30 36 26 23 25 29 33 53 69 75 45 42 73 92 89 84 75 62 44 41 50 66 82 90 92 88 81 77 72 65 61 59 56 53 49
36 26 15 13 20 24 32 32 33 11 24 12 19 27 42 51 62 43 9 66 88 92 88 92 85 77 67 52 43 48 65 79 93 97 92 86 81 75 68 67 64 60 59 55
25 31 21 7 16 20 23 19 21 16 30 20 16 26 31 45 24 25 64 85 91 89 84 82 72 69 68 50 46 53 68 80 90 93 89 84 79 75 73 68 65 64 62 54
9 10 29 29 24 15 31 39 17 27 24 19 29 32 35 24 27 66 79 84 82 88 83 73 72 76 67 44 45 55 69 86 82 80 80 78 79 78 72 67 67 66 63 59
21 15 13 18 13 22 44 17 25 22 41 25 44 38 40 44 52 61 70 78 86 88 75 71 72 66 47 42 46 55 66 76 75 74 75 78 80 81 77 71 67 67 66 64
17 21 16 17 16 21 22 20 28 49 43 40 45 52 46 45 52 57 70 76 82 83 74 68 59 45 34 34 40 47 57 69 72 72 77 77 79 80 78 74 74 73 73 70
15 12 12 22 38 40 32 39 49 48 55 58 52 54 53 54 53 57 67 74 78 82 68 56 40 31 28 29 31 33 43 57 65 65 63 67 73 76 77 73 76 78 76 75
22 21 21 17 37 38 42 47 61 53 52 52 58 60 62 54 54 55 70 78 75 76 57 36 20 14 10 14 21 27 35 45 55 60 56 59 61 65 68 72 73 77 74 71
28 35 18 23 44 29 37 43 50 46 53 51 54 69 62 49 63 61 74 74 82 66 49 30 14 3 5 8 12 19 28 36 42 46 48 49 52 56 60 63 65 69 70 68
Wind_Direction_500mb
180 223 220 226 222 243 247 258 267 262 266 278 264 272 278 276 265 258 257 256 254 250 254 246 239 230 228 219 216 214 212 211 211 210 210 213 220 222 226 231 239 250 266 282
195 243 258 259 225 233 249 263 268 280 280 244 274 275 274 271 261 257 255 255 250 248 246 245 240 231 228 224 217 216 214 214 213 214 216 218 222 222 226 232 238 250 265 276
245 345 63 185 215 232 243 248 260 259 299 258 279 273 252 269 241 258 255 250 253 247 243 238 236 232 226 222 218 216 215 215 215 215 215 217 218 221 226 228 234 247 263 274
262 284 245 244 254 235 273 242 251 274 270 270 280 293 273 285 283 270 268 250 251 251 246 240 236 230 227 223 219 218 216 215 215 216 216 220 226 225 228 227 234 246 259 267
268 253 231 243 246 192 249 133 234 258 251 300 238 254 261 273 279 273 290 312 299 282 257 252 233 234 227 224 221 217 216 216 216 216 216 217 219 222 224 224 232 242 255 262
261 274 262 246 288 218 357 228 174 147 249 252 245 233 262 265 253 308 340 318 315 316 326 269 243 235 228 221 221 215 215 215 215 215 213 216 218 220 219 220 228 239 248 256
293 223 235 224 248 195 233 250 278 234 207 252 59 235 266 272 278 315 318 328 332 335 339 306 258 232 226 218 216 213 213 213 213 212 212 213 216 219 220 222 226 237 242 248
297 247 185 150 235 291 207 228 235 270 264 318 240 242 186 255 327 319 11 24 36 29 5 333 284 249 231 223 216 212 211 212 211 209 210 212 215 216 216 219 224 230 232 241
306 247 17 261 292 242 164 211 269 281 126 269 244 269 267 271 83 51 54 46 29 15 9 357 318 262 238 228 218 213 210 211 209 208 209 210 212 213 215 217 221 224 224 229
21 285 273 348 241 206 257 24 187 208 258 254 228 259 241 32 45 347 8 29 13 0 3 2 348 298 255 234 222 215 213 212 208 208 210 211 211 212 213 215 220 221 219 220
346 260 260 295 204 297 174 220 233 277 231 262 289 249 266 35 2 9 10 357 346 350 356 358 356 329 275 244 228 218 213 210 208 207 209 209 210 209 211 214 219 219 218 217
1 305 274 260 294 349 293 305 270 245 232 243 273 261 305 11 32 5 346 338 337 336 337 344 345 336 298 256 235 224 216 212 209 207 207 208 208 209 211 215 218 217 216 216
344 299 306 272 214 58 36 359 7 337 235 249 256 251 68 337 328 337 335 323 319 318 323 335 341 336 312 273 245 231 219 213 208 206 206 207 208 210 212 216 217 217 216 217
237 249 244 263 308 314 292 294 296 295 283 313 261 284 317 333 321 315 315 314 317 317 319 321 324 331 319 287 254 234 221 213 206 205 207 208 210 211 213 215 216 214 215 218
251 248 246 268 277 278 278 287 287 268 255 254 278 291 301 291 285 292 302 310 313 312 310 314 317 318 314 292 258 233 220 212 207 208 208 211 211 212 214 216 215 214 214 218
178 258 260 268 279 275 273 267 270 280 273 262 271 273 277 318 312 305 308 318 314 302 306 311 315 319 311 291 268 233 216 211 210 210 212 213 212 213 215 216 215 214 214 217
200 234 218 271 298 304 273 252 255 267 271 275 275 302 315 310 312 310 308 302 300 304 312 312 316 320 321 296 274 239 217 211 212 212 214 215 215 215 217 217 216 216 216 218
228 221 237 272 311 259 268 276 275 283 278 294 302 306 325 320 307 302 299 302 327 322 318 313 310 308 313 293 263 242 224 214 212 214 216 216 215 217 218 218 218 217 218 219
218 230 243 246 246 288 294 276 271 248 278 261 318 319 321 327 316 303 214 323 323 319 314 309 304 300 299 288 256 239 225 216 214 215 216 217 217 218 219 221 219 219 219 219
218 224 230 168 241 256 262 267 227 257 273 269 300 311 311 329 316 306 312 320 316 316 315 313 305 298 295 282 248 238 222 217 215 216 218 219 219 221 223 224 221 221 221 221
167 207 215 224 238 249 255 254 249 248 286 304 305 309 302 306 291 291 308 317 314 315 316 312 303 299 294 263 239 238 222 221 215 215 219 221 221 223 225 225 223 223 221 221
205 186 208 226 235 257 248 228 228 259 300 278 291 287 299 302 307 298 311 317 318 317 319 313 305 300 283 245 233 236 228 219 220 218 222 222 223 223 221 222 224 222 221 223
239 213 229 208 233 254 208 215 220 283 283 281 280 279 293 305 308 303 316 319 319 318 316 312 307 298 271 242 229 236 230 219 215 218 223 225 226 225 223 221 223 218 221 223
236 194 218 226 245 248 238 258 278 277 283 287 292 285 279 301 299 301 316 317 319 322 317 310 310 300 272 244 223 222 225 216 213 218 221 225 226 224 221 221 226 226 221 222
240 168 228 240 254 257 264 258 265 275 285 284 291 291 287 294 292 299 314 315 316 319 308 297 315 299 254 226 207 200 206 212 212 214 222 222 222 222 222 223 226 228 229 232
216 236 220 236 249 249 258 265 269 267 275 277 280 287 289 287 298 303 309 314 317 313 293 273 279 295 123 142 177 176 181 190 198 204 208 211 214 216 218 220 224 227 230 233
Wind_Speed_850mb
6 13 22 27 28 24 8 13 26 28 14 11 26 29 46 40 33 42 48 56 60 55 61 71 69 79 73 74 80 81 77 74 70 62 55 48 44 42 38 34 30 29 27 27
8 22 23 8 15 20 24 29 33 36 24 22 30 33 44 44 44 55 62 64 65 67 66 75 64 77 86 84 86 87 85 81 74 67 58 51 45 43 39 36 33 29 28 26
20 3 10 11 12 18 24 29 28 26 26 25 25 28 29 19 24 41 60 72 64 69 71 69 80 71 84 95 93 95 92 86 79 72 64 54 48 44 43 40 35 30 27 23
16 8 11 16 22 22 25 18 28 23 12 10 3 14 21 27 24 26 45 42 58 67 68 65 76 89 81 94 98 98 96 91 85 78 70 59 50 49 43 39 35 29 24 21
1 3 7 14 12 20 9 2 8 10 15 14 20 12 8 9 20 35 19 10 26 38 49 61 66 78 91 84 99 102 99 96 91 83 74 61 54 48 42 40 34 27 23 20
28 7 10 11 2 17 4 3 3 2 5 12 18 17 11 13 12 14 12 41 37 32 27 35 48 61 66 84 89 102 104 102 95 88 78 67 58 52 48 42 34 26 23 20
8 9 4 7 10 6 10 6 6 7 7 13 2 9 16 31 28 24 32 46 38 31 33 29 34 52 63 81 89 102 105 102 98 93 82 71 60 52 47 41 34 27 23 21
6 5 5 4 9 2 13 8 7 10 7 8 2 11 5 15 17 13 20 27 39 57 51 35 27 36 59 71 85 98 102 102 100 96 83 71 62 56 51 44 34 28 25 20
6 9 1 2 2 4 8 13 5 8 2 8 11 8 19 24 16 19 25 40 40 67 71 55 27 25 42 61 81 94 99 100 99 94 86 75 66 60 54 45 36 31 26 21
5 12 1 3 4 4 7 3 5 5 9 13 7 8 13 3 12 5 20 32 43 63 72 65 38 21 28 46 67 86 95 99 98 94 85 75 66 61 55 45 36 31 28 23
14 8 4 7 7 2 5 6 7 6 8 10 10 9 4 5 15 22 19 31 49 56 62 69 50 30 24 34 54 79 92 96 98 94 86 76 69 63 55 44 37 34 30 25
10 9 12 19 14 8 7 9 9 15 14 10 11 22 22 23 17 29 37 52 57 53 54 68 56 40 27 31 44 64 88 97 96 92 83 76 70 64 56 46 40 37 33 28
10 2 12 11 7 10 10 12 12 23 9 31 23 13 3 33 40 43 42 62 73 72 61 66 63 51 35 31 39 54 77 92 95 92 83 77 71 66 56 47 41 39 35 31
6 6 14 24 22 26 28 30 30 15 11 20 35 36 33 45 57 62 74 68 65 73 63 66 73 62 45 36 37 49 68 85 91 89 83 77 72 65 55 47 44 41 38 33
2 8 8 22 30 31 36 42 41 31 31 25 49 39 36 43 45 62 80 73 68 75 92 77 84 77 54 41 39 46 61 79 88 87 81 74 68 61 55 51 48 45 41 37
8 11 11 15 29 33 39 35 32 42 36 44 47 56 35 42 51 56 59 57 58 75 76 96 90 72 57 48 43 49 65 81 87 84 79 73 69 64 59 55 51 49 45 41
10 7 4 30 18 19 22 29 37 25 30 30 36 29 25 28 32 48 64 70 69 75 71 71 65 61 57 47 46 54 69 82 89 87 82 75 73 69 62 57 55 53 49 45
17 19 13 19 3 25 22 21 26 30 36 26 23 25 29 33 53 69 75 45 42 73 92 89 84 75 62 44 41 50 66 82 90 92 88 81 77 72 65 61 59 56 53 49
36 26 15 13 20 24 32 32 33 11 24 12 19 27 42 51 62 43 9 66 88 92 88 92 85 77 67 52 43 48 65 79 93 97 92 86 81 75 68 67 64 60 59 55
25 31 21 7 16 20 23 19 21 16 30 20 16 26 31 45 24 25 64 85 91 89 84 82 72 69 68 50 46 53 68 80 90 93 89 84 79 75 73 68 65 64 62 54
9 10 29 29 24 15 31 39 17 27 24 19 29 32 35 24 27 66 79 84 82 88 83 73 72 76 67 44 45 55 69 86 82 80 80 78 79 78 72 67 67 66 63 59
21 15 13 18 13 22 44 17 25 22 41 25 44 38 40 44 52 61 70 78 86 88 75 71 72 66 47 42 46 55 66 76 75 74 75 78 80 81 77 71 67 67 66 64
17 21 16 17 16 21 22 20 28 49 43 40 45 52 46 45 52 57 70 76 82 83 74 68 59 45 34 34 40 47 57 69 72 72 77 77 79 80 78 74 74 73 73 70
15 12 12 22 38 40 32 39 49 48 55 58 52 54 53 54 53 57 67 74 78 82 68 56 40 31 28 29 31 33 43 57 65 65 63 67 73 76 77 73 76 78 76 75
22 21 21 17 37 38 42 47 61 53 52 52 58 60 62 54 54 55 70 78 75 76 57 36 20 14 10 14 21 27 35 45 55 60 56 59 61 65 68 72 73 77 74 71
28 35 18 23 44 29 37 43 50 46 53 51 54 69 62 49 63 61 74 74 82 66 49 30 14 3 5 8 12 19 28 36 42 46 48 49 52 56 60 63 65 69 70 68
Wind_Direction_850mb
180 223 220 226 222 243 247 258 267 262 266 278 264 272 278 276 265 258 257 256 254 250 254 246 239 230 228 219 216 214 212 211 211 210 210 213 220 222 226 231 239 250 266 282
195 243 258 259 225 233 249 263 268 280 280 244 274 275 274 271 261 257 255 255 250 248 246 245 240 231 228 224 217 216 214 214 213 214 216 218 222 222 226 232 238 250 265 276
245 345 63 185 215 232 243 248 260 259 299 258 279 273 252 269 241 258 255 250 253 247 243 238 236 232 226 222 218 216 215 215 215 215 215 217 218 221 226 228 234 247 263 274
262 284 245 244 254 235 273 242 251 274 270 270 280 293 273 285 283 270 268 250 251 251 246 240 236 230 227 223 219 218 216 215 215 216 216 220 226 225 228 227 234 246 259 267
268 253 231 243 246 192 249 133 234 258 251 300 238 254 261 273 279 273 290 312 299 282 257 252 233 234 227 224 221 217 216 216 216 216 216 217 219 222 224 224 232 242 255 262
261 274 262 246 288 218 357 228 174 147 249 252 245 233 262 265 253 308 340 318 315 316 326 269 243 235 228 221 221 215 215 215 215 215 213 216 218 220 219 220 228 239 248 256
293 223 235 224 248 195 233 250 278 234 207 252 59 235 266 272 278 315 318 328 332 335 339 306 258 232 226 218 216 213 213 213 213 212 212 213 216 219 220 222 226 237 242 248
297 247 185 150 235 291 207 228 235 270 264 318 240 242 186 255 327 319 11 24 36 29 5 333 284 249 231 223 216 212 211 212 211 209 210 212 215 216 216 219 224 230 232 241
306 247 17 261 292 242 164 211 269 281 126 269 244 269 267 271 83 51 54 46 29 15 9 357 318 262 238 228 218 213 210 211 209 208 209 210 212 213 215 217 221 224 224 229
21 285 273 348 241 206 257 24 187 208 258 254 228 259 241 32 45 347 8 29 13 0 3 2 348 298 255 234 222 215 213 212 208 208 210 211 211 212 213 215 220 221 219 220
346 260 260 295 204 297 174 220 233 277 231 262 289 249 266 35 2 9 10 357 346 350 356 358 356 329 275 244 228 218 213 210 208 207 209 209 210 209 211 214 219 219 218 217
1 305 274 260 294 349 293 305 270 245 232 243 273 261 305 11 32 5 346 338 337 336 337 344 345 336 298 256 235 224 216 212 209 207 207 208 208 209 211 215 218 217 216 216
344 299 306 272 214 58 36 359 7 337 235 249 256 251 68 337 328 337 335 323 319 318 323 335 341 336 312 273 245 231 219 213 208 206 206 207 208 210 212 216 217 217 216 217
237 249 244 263 308 314 292 294 296 295 283 313 261 284 317 333 321 315 315 314 317 317 319 321 324 331 319 287 254 234 221 213 206 205 207 208 210 211 213 215 216 214 215 218
251 248 246 268 277 278 278 287 287 268 255 254 278 291 301 291 285 292 302 310 313 312 310 314 317 318 314 292 258 233 220 212 207 208 208 211 211 212 214 216 215 214 214 218
178 258 260 268 279 275 273 267 270 280 273 262 271 273 277 318 312 305 308 318 314 302 306 311 315 319 311 291 268 233 216 211 210 210 212 213 212 213 215 216 215 214 214 217
200 234 218 271 298 304 273 252 255 267 271 275 275 302 315 310 312 310 308 302 300 304 312 312 316 320 321 296 274 239 217 211 212 212 214 215 215 215 217 217 216 216 216 218
228 221 237 272 311 259 268 276 275 283 278 294 302 306 325 320 307 302 299 302 327 322 318 313 310 308 313 293 263 242 224 214 212 214 216 216 215 217 218 218 218 217 218 219
218 230 243 246 246 288 294 276 271 248 278 261 318 319 321 327 316 303 214 323 323 319 314 309 304 300 299 288 256 239 225 216 214 215 216 217 217 218 219 221 219 219 219 219
218 224 230 168 241 256 262 267 227 257 273 269 300 311 311 329 316 306 312 320 316 316 315 313 305 298 295 282 248 238 222 217 215 216 218 219 219 221 223 224 221 221 221 221
167 207 215 224 238 249 255 254 249 248 286 304 305 309 302 306 291 291 308 317 314 315 316 312 303 299 294 263 239 238 222 221 215 215 219 221 221 223 225 225 223 223 221 221
205 186 208 226 235 257 248 228 228 259 300 278 291 287 299 302 307 298 311 317 318 317 319 313 305 300 283 245 233 236 228 219 220 218 222 222 223 223 221 222 224 222 221 223
239 213 229 208 233 254 208 215 220 283 283 281 280 279 293 305 308 303 316 319 319 318 316 312 307 298 271 242 229 236 230 219 215 218 223 225 226 225 223 221 223 218 221 223
236 194 218 226 245 248 238 258 278 277 283 287 292 285 279 301 299 301 316 317 319 322 317 310 310 300 272 244 223 222 225 216 213 218 221 225 226 224 221 221 226 226 221 222
240 168 228 240 254 257 264 258 265 275 285 284 291 291 287 294 292 299 314 315 316 319 308 297 315 299 254 226 207 200 206 212 212 214 222 222 222 222 222 223 226 228 229 232
216 236 220 236 249 249 258 265 269 267 275 277 280 287 289 287 298 303 309 314 317 313 293 273 279 295 123 142 177 176 181 190 198 204 208 211 214 216 218 220 224 227 230 233